sat.trackr.live / text

‹ back to catalog

AETHER-8

NORAD 67379 · 2026-004S

PAYLOAD ACTIVE UNKNOWN

§ Identity

Operator
Country
CA
Launch date
2026-01-11
Launch site
AFWTR
Launch vehicle
Mass (kg)
RCS (m²)

External: N2YO · Heavens-Above · Gunter

§ Orbital elements

Epoch: 2026-09-20T21:08:45.194496Z

Period
96.91 min
Inclination
97.8089°
Eccentricity
0.0000834
Mean motion
14.85898287 rev/d
Perigee alt
610.2 km
Apogee alt
611.4 km
Semi-major
6,988.9 km
B*
4.5439e-5
RAAN
260.6423°
Arg perigee
167.2227°
Mean anomaly
192.9010°
Rev number
3,749

§ Raw data

AETHER-81 67379U 26004S   26263.88107864  .00000343  00000+0  45439-4 0  99932 67379  97.8089 260.6423 0000834 167.2227 192.9010 14.85898287 37495

JSON: /api/v1/satellites/67379 · /tle

For live sub-satellite position, see the globe view (requires WebGL).

§ Visibility from observer

Set your observer location to see the next 7 days of passes ≥ 10°. The values pass through the URL so the page stays shareable.

No JS? Fill the form by hand. The geolocation button needs JavaScript.